Greybull, WY

11:22 AM MST on December 06, 2019 (GMT -0700)
South Big Horn County

Weather History for KGEY - October, 2019

Change the Weather History Date:

Monday, October 14, 2019

  Actual Average Record
Temperature  
Mean Temperature 48 °F 47 °F  
Max Temperature 64 °F 61 °F 77 °F (1999)
Min Temperature 32 °F 33 °F 22 °F (2018)
Degree Days  
Heating Degree Days 18 18  
Month to date heating degree days 220  
Since 1 July heating degree days 451  
Cooling Degree Days 0 0  
Month to date cooling degree days 0  
Year to date cooling degree days 669  
Moisture  
Dew Point 28 °F    
Average Humidity 53    
Maximum Humidity 88    
Minimum Humidity 23    
Precipitation  
Precipitation 0.00 in 0.03 in 0.24 in (2001)
Month to date precipitation 0.35  
Year to date precipitation 6.68  
Sea Level Pressure  
Sea Level Pressure 29.90 in    
Wind  
Wind Speed 7 mph (NW)    
Max Wind Speed 22 mph    
Max Gust Speed 29 mph    
Visibility 10 miles    
Events Rain    
T = Trace of Precipitation, MM = Missing Value Source: NWS Daily Summary

Daily Weather History Graph

Daily Weather History Graph

Search for Another Location

Airport or City:

Astronomy

Oct. 14, 2019 Rise Set
Actual Time 7:26 AM MDT 6:29 PM MDT
Civil Twilight 6:56 AM MDT 6:59 PM MDT
Nautical Twilight 6:22 AM MDT 7:32 PM MDT
Astronomical Twilight 5:49 AM MDT 8:06 PM MDT
Moon 7:20 PM MDT (10/14) 8:00 AM MDT (10/14)
Length of Visible Light 12h 02m
Length of Day
11h 03m
Full, 99% of the Moon is Illuminated
Oct 14
Full
Oct 21
Last Quarter
Oct 27
New
Nov 4
First Quarter
Nov 12
Full

Hourly Weather History & Observations

Time (MDT) Temp. Windchill Dew Point Humidity Pressure Visibility Wind Dir Wind Speed Gust Speed Precip Events Conditions
12:53 AM 35.1 °F 32.2 °F 28.9 °F 78% 29.85 in 10.0 mi WSW 3.5 mph - N/A   Clear
1:53 AM 35.1 °F 30.1 °F 28.0 °F 76% 29.83 in 10.0 mi West 5.8 mph - N/A   Clear
2:53 AM 33.1 °F 27.7 °F 28.9 °F 85% 29.83 in 10.0 mi SSE 5.8 mph - N/A   Clear
3:53 AM 34.0 °F 29.8 °F 28.9 °F 82% 29.81 in 10.0 mi East 4.6 mph - N/A   Clear
4:53 AM 35.1 °F - 28.9 °F 78% 29.81 in 10.0 mi North - - N/A   Clear
5:53 AM 32.0 °F 27.5 °F 28.0 °F 85% 29.84 in 10.0 mi Variable 4.6 mph - N/A   Clear
6:53 AM 33.1 °F - 28.9 °F 85% 29.86 in 10.0 mi Calm Calm - N/A   Clear
7:53 AM 32.0 °F 28.7 °F 28.9 °F 88% 29.88 in 10.0 mi West 3.5 mph - N/A   Clear
8:53 AM 37.0 °F - 30.0 °F 76% 29.90 in 10.0 mi Calm Calm - N/A   Clear
9:53 AM 42.1 °F - 30.0 °F 62% 29.89 in 10.0 mi Calm Calm - N/A   Clear
10:53 AM 46.9 °F - 30.9 °F 54% 29.88 in 10.0 mi SW 3.5 mph - N/A   Clear
11:53 AM 54.0 °F - 30.9 °F 41% 29.86 in 10.0 mi Calm Calm - N/A   Clear
12:53 PM 59.0 °F - 30.9 °F 35% 29.85 in 10.0 mi Calm Calm - N/A   Clear
1:38 PM 62.1 °F - 27.0 °F 26% 29.83 in 1.8 mi Variable 3.5 mph - N/A   Haze
1:46 PM 63.0 °F - 27.0 °F 26% 29.83 in 10.0 mi NNE 9.2 mph - N/A   Clear
1:53 PM 63.0 °F - 28.0 °F 27% 29.82 in 10.0 mi NNW 9.2 mph - N/A   Clear
2:53 PM 63.0 °F - 24.1 °F 23% 29.84 in 10.0 mi NNW 10.4 mph 19.6 mph N/A   Clear
3:53 PM 63.0 °F - 28.0 °F 27% 29.86 in 10.0 mi NNW 17.3 mph 23.0 mph N/A   Clear
4:53 PM 60.1 °F - 30.0 °F 32% 29.88 in 10.0 mi NNW 21.9 mph - N/A   Clear
5:53 PM 55.9 °F - 25.0 °F 30% 29.93 in 10.0 mi NNW 20.7 mph - N/A   Clear
6:53 PM 52.0 °F - 23.0 °F 32% 29.97 in 10.0 mi NNW 17.3 mph - N/A   Clear
7:53 PM 51.1 °F - 26.1 °F 38% 30.01 in 10.0 mi NNW 20.7 mph 28.8 mph N/A   Clear
8:53 PM 48.9 °F - 25.0 °F 39% 30.05 in 10.0 mi NW 15.0 mph - 0.00 in Rain Light Rain
9:53 PM 46.9 °F - 26.1 °F 44% 30.08 in 10.0 mi WNW 15.0 mph - 0.00 in Rain Light Rain
10:53 PM 43.0 °F 35.4 °F 28.9 °F 58% 30.11 in 10.0 mi WNW 16.1 mph - 0.00 in Rain Light Rain
11:53 PM 42.1 °F 33.9 °F 28.0 °F 58% 30.12 in 10.0 mi WNW 17.3 mph - 0.00 in Rain Light Rain